Location: Miss�
(46.9484°N, 0.1922°W)
Time: 02:51:54
(UTC+00:00)

NOSS 3-3 (A) - Pass Details

Date: 02 March 2021
Orbit: 816 x 1396 km, 63.4° (Epoch: 19 March)

Event Time Altitude Azimuth Distance (km) Brightness Sun altitude
Rises 20:51:48 0° 320° (NW) 3,938 8.1 -31.4°
Reaches altitude 10° 20:54:22 10° 322° (NW) 3,056 7.3 -31.8°
Enters shadow 21:01:45 79° 42° (NE) 1,293 4.4 -32.9°
